SCP
2 2 2 2 2 2 2 2 2 2 3 3 4 5 7 7 6 6 5 5 4 4 3 3 3 3 2 1 1 1 2 2 2 2 2 2 2 2 2 2 2 3 4
2 2 2 2 2 2 2 2 2 2 2 3 4 5 6 6 6 5 5 5 4 4 3 3 3 2 2 2 2 2 2 2 2 2 2 2 2 2 2 2 2 3 4
2 1 2 2 2 2 2 1 1 2 2 3 4 5 5 5 5 5 5 5 4 4 3 3 2 2 2 2 2 2 2 2 2 3 3 2 2 3 3 3 3 3 4
1 1 1 2 2 2 2 2 2 2 3 3 4 5 5 5 6 6 6 5 4 4 3 2 2 2 1 2 2 2 2 1 1 2 3 2 3 3 3 3 3 3 4
1 1 1 1 2 2 2 2 2 3 3 3 4 4 5 5 5 6 5 5 4 4 3 2 1 1 1 1 1 1 1 1 1 2 2 2 3 3 3 3 3 3 3
1 1 1 1 2 2 2 2 2 2 2 3 3 3 4 4 5 5 5 5 4 4 3 2 1 1 1 1 1 1 1 1 1 1 2 2 2 3 3 3 2 2 2
1 1 1 2 2 2 2 2 2 2 2 2 2 3 3 3 4 4 4 4 3 3 2 2 1 1 1 1 1 1 2 2 1 1 1 2 2 2 2 2 2 1 1
1 1 1 2 2 2 1 2 2 2 2 2 2 2 2 2 3 3 3 2 2 2 2 1 1 1 1 1 1 1 1 1 1 1 1 2 2 2 2 2 1 1 1
2 2 2 2 2 1 1 1 1 2 2 2 2 2 2 2 2 2 2 1 1 1 1 1 1 1 1 1 1 1 1 1 1 1 1 1 2 2 2 1 1 1 1
2 2 2 2 1 1 1 1 1 2 2 2 2 2 2 2 2 1 1 1 1 1 1 1 1 1 1 1 1 1 2 1 1 1 1 1 2 2 1 1 1 1 1
3 2 2 2 1 1 1 1 1 2 2 2 2 2 2 2 2 1 1 1 1 1 2 2 1 1 1 1 2 2 2 1 1 1 1 1 1 1 1 1 1 1 1
2 2 2 2 2 1 1 1 1 2 2 2 2 2 2 2 2 1 1 2 2 2 2 2 2 2 2 2 2 2 1 1 1 1 1 1 1 1 1 1 1 1 1
2 2 2 2 2 2 1 1 1 1 2 2 2 2 2 2 2 2 2 2 2 2 2 2 2 2 2 2 2 1 1 1 1 1 1 1 1 1 1 1 2 2 2
3 3 2 3 3 2 2 1 1 1 1 1 2 2 2 2 2 2 2 2 2 2 2 2 2 2 2 2 2 1 1 1 1 1 1 1 1 1 1 2 2 2 2
4 3 3 3 3 3 2 2 1 1 1 1 1 2 2 2 2 2 2 2 2 2 2 2 2 2 2 2 2 1 1 1 1 1 1 1 1 1 1 2 2 2 2
4 4 4 3 3 3 2 2 1 1 1 1 2 2 2 2 2 3 2 2 2 2 2 2 2 2 2 2 2 2 2 2 2 2 1 1 1 1 1 1 2 2 2
4 4 4 4 3 3 2 2 2 2 2 2 2 2 2 2 3 3 2 2 2 2 2 2 2 2 2 2 2 2 2 2 2 2 2 2 2 1 2 2 2 2 2
4 4 4 4 4 3 3 2 2 2 2 2 2 2 2 2 2 2 2 2 2 2 2 2 2 2 2 2 2 2 2 2 2 2 2 2 2 2 2 2 3 3 2
4 4 5 4 4 3 3 3 3 3 2 2 2 2 2 2 2 2 2 2 2 2 2 2 2 2 2 2 2 2 2 2 2 2 2 3 3 2 2 2 3 3 3
3 4 5 4 4 4 3 3 3 3 2 2 2 2 2 2 2 2 2 2 2 2 2 2 2 2 2 3 2 2 3 3 3 3 3 3 3 3 2 2 3 3 3
3 4 5 5 4 4 3 3 3 3 2 2 3 2 2 2 2 2 2 2 2 2 2 2 2 3 3 3 3 3 3 3 3 3 3 3 3 3 3 3 3 3 3
3 4 5 5 5 4 4 4 4 3 3 3 3 3 2 2 2 2 2 2 2 2 2 2 2 3 3 3 3 3 3 3 3 3 3 3 3 3 3 3 3 4 3
3 4 5 5 5 5 4 4 3 3 3 3 3 4 4 3 2 2 2 2 3 3 3 2 2 3 3 4 3 3 3 2 2 2 3 3 3 4 4 3 4 4 4
4 5 5 6 5 5 4 3 3 3 3 3 4 5 5 3 3 2 3 3 3 3 3 3 3 3 4 4 4 4 3 3 2 2 2 3 3 4 3 3 3 4 4
5 6 6 5 5 5 4 3 3 4 4 4 5 5 5 4 3 3 3 3 3 3 3 3 3 3 4 3 3 3 3 3 3 3 3 3 3 3 3 3 3 4 4
5 6 6 5 5 4 4 3 4 4 4 5 5 5 5 4 4 4 4 4 3 3 3 3 3 4 4 3 3 3 3 3 4 4 3 3 3 3 3 3 4 4 4
Wind_Speed
10 12 13 13 13 13 12 12 11 11 11 11 11 11 11 11 12 11 10 10 10 10 9 9 8 7 7 7 7 7 6 6 6 6 7 7 7 6 6 6 6 6 8
13 13 14 13 13 13 12 11 11 11 11 11 11 11 11 11 10 10 10 9 9 9 9 9 8 7 7 6 6 5 5 5 5 6 7 6 6 6 6 6 6 5 8
13 13 13 13 12 12 12 11 11 11 11 11 10 10 10 10 9 9 9 8 9 9 8 8 8 7 6 5 4 3 3 5 6 6 6 4 5 6 6 7 7 8 8
13 12 12 13 12 12 11 11 10 10 10 10 10 10 10 10 9 8 8 8 8 8 8 7 7 7 6 5 4 3 2 4 6 6 3 4 5 7 7 7 7 7 7
14 13 13 13 12 12 11 10 10 10 10 10 9 9 9 9 9 8 8 8 8 7 7 7 7 6 6 5 3 2 1 3 4 4 3 5 5 7 7 7 7 7 7
14 13 13 13 12 11 11 11 10 10 9 9 9 9 9 9 9 9 9 8 9 8 7 7 6 5 5 4 2 1 1 1 2 3 4 6 5 6 7 7 7 7 6
13 13 13 12 12 11 11 10 10 10 9 9 9 9 9 9 9 10 9 9 9 8 7 7 6 5 4 3 2 1 2 3 4 3 5 6 5 7 7 7 7 7 6
12 12 12 12 12 12 11 10 10 10 9 9 8 9 8 8 8 9 9 9 8 7 6 6 6 5 4 3 1 2 3 5 1 5 6 6 7 7 7 7 7 6 6
11 12 11 11 11 11 11 10 10 9 8 8 8 8 8 8 8 8 8 8 7 6 6 5 5 4 3 3 3 4 4 6 3 2 7 5 6 7 7 6 6 6 5
9 10 10 10 10 10 10 10 10 9 8 7 7 7 8 8 8 8 8 7 7 6 5 4 4 3 3 3 4 5 6 6 2 3 5 6 7 7 7 6 6 6 5
8 7 8 9 8 8 10 10 9 8 7 6 6 8 7 4 6 6 7 8 8 6 5 4 5 5 4 5 6 7 6 2 2 3 4 7 7 7 7 7 6 6 5
7 7 7 8 6 6 6 7 5 6 5 3 3 4 3 2 3 6 8 9 8 7 6 6 6 6 6 4 6 6 3 1 1 4 5 8 8 7 7 7 6 6 6
6 6 7 7 5 5 4 4 3 3 3 4 3 3 2 2 3 4 4 5 5 7 5 5 5 4 3 2 2 3 2 1 2 4 6 8 8 8 8 7 7 6 6
5 6 7 7 6 4 3 2 3 3 3 3 3 2 2 1 1 1 1 2 2 2 2 2 2 3 3 3 2 1 0 2 3 4 5 9 8 8 8 7 7 6 6
6 6 7 6 5 4 3 1 2 2 3 3 3 2 1 1 2 2 1 0 1 1 2 1 0 0 1 0 1 1 2 3 3 4 4 8 8 8 8 7 7 6 6
6 6 7 7 6 4 2 1 1 2 2 3 2 2 1 1 2 2 1 1 1 1 0 1 1 1 0 1 2 2 2 2 3 4 5 6 7 7 7 6 6 6 6
6 6 6 7 6 4 3 1 2 2 3 3 3 2 2 2 2 1 1 1 1 1 1 1 0 0 1 1 1 2 1 1 2 3 4 4 5 6 7 7 6 5 6
7 6 4 5 7 4 2 1 1 1 2 2 2 2 2 1 1 1 1 0 0 1 0 0 1 1 0 0 0 1 1 2 2 2 3 3 3 4 6 7 7 6 6
7 6 5 4 5 5 3 2 1 1 1 1 1 2 2 1 1 0 1 1 1 1 0 1 1 1 0 0 1 1 2 2 2 2 3 4 4 5 4 6 7 6 6
8 7 6 5 4 3 3 2 1 1 1 1 2 2 1 0 1 1 1 1 1 0 1 1 1 1 1 1 1 1 2 3 3 2 3 3 3 5 6 5 5 5 7
8 7 6 5 4 2 2 2 2 2 2 1 2 3 2 0 1 1 1 1 0 0 0 1 1 2 1 1 1 1 1 2 2 3 2 2 3 3 5 6 5 4 4
9 8 7 6 6 4 3 2 2 2 2 2 1 3 2 1 0 1 1 1 0 0 0 1 1 2 2 1 1 1 1 0 1 3 3 2 3 3 4 6 5 5 4
10 9 7 6 6 4 4 2 1 1 1 1 2 2 1 1 1 0 1 1 0 0 0 1 1 2 2 2 1 0 0 0 1 0 1 2 2 2 2 3 5 5 5
11 10 8 7 6 5 4 3 3 3 2 2 2 2 2 2 1 1 1 0 1 1 0 1 1 2 2 2 2 1 0 0 0 1 0 1 2 3 2 2 3 4 4
12 10 9 7 6 5 4 4 3 2 2 1 2 2 2 3 2 1 1 1 0 0 0 1 1 1 1 2 2 1 1 0 1 1 1 1 1 2 3 3 3 3 4
11 10 10 8 7 6 5 4 3 2 2 1 2 2 2 2 2 2 2 2 1 1 1 1 1 1 1 2 3 2 2 1 1 1 1 1 1 1 2 2 2 3 3
Wind_Direction
98 99 97 97 93 91 91 91 90 91 93 96 98 100 100 102 102 101 101 104 107 109 111 111 107 104 101 98 95 99 104 112 119 123 125 124 122 122 129 141 139 121 117
107 105 101 99 96 93 92 92 91 91 94 98 101 103 105 106 108 108 108 109 112 112 110 108 106 104 103 99 100 108 127 142 145 145 143 136 129 127 124 127 129 124 128
105 109 104 100 100 98 96 95 96 96 98 99 103 107 109 109 111 112 114 113 115 113 111 109 107 103 100 98 102 115 148 173 173 170 166 146 131 127 124 124 127 131 131
106 105 102 103 100 99 99 97 98 100 100 101 105 109 112 113 116 118 119 115 115 113 113 112 109 105 103 103 103 105 143 183 189 194 190 130 120 119 125 129 132 135 135
101 102 105 107 104 102 100 99 99 101 102 103 104 107 109 111 114 115 116 117 117 116 116 114 110 109 108 108 112 125 164 201 205 193 127 106 104 122 127 127 132 137 138
111 109 110 111 109 107 103 102 102 102 104 105 104 106 108 110 112 111 112 116 118 116 114 115 114 116 115 119 139 183 233 261 242 163 124 115 115 128 129 131 131 133 133
111 113 118 118 115 112 108 107 106 107 109 112 110 108 108 107 108 111 110 112 113 111 111 111 115 120 123 127 155 227 264 280 248 136 115 111 118 131 133 134 136 135 135
114 116 121 124 120 118 116 114 112 113 113 114 115 114 116 115 115 116 115 115 113 112 112 113 120 123 126 137 186 246 270 284 225 120 108 108 124 131 133 135 137 141 143
121 124 132 134 131 127 124 120 119 119 120 122 129 130 131 131 129 127 125 124 122 121 120 118 124 131 148 174 215 246 266 287 312 121 117 114 129 136 138 140 140 140 143
115 123 134 138 139 142 136 132 130 132 136 140 143 146 149 150 149 146 143 139 138 137 138 139 144 161 180 209 229 246 263 280 257 110 109 124 136 141 146 147 145 146 145
109 120 129 128 137 141 139 136 146 146 149 154 155 162 171 176 164 157 144 148 153 158 163 172 182 193 208 225 241 255 266 251 110 101 100 131 143 149 154 155 156 156 153
124 129 123 119 123 126 125 136 153 149 151 158 146 163 176 171 146 140 149 160 165 175 185 200 205 213 222 217 221 235 249 232 121 103 115 140 142 147 153 156 160 161 158
123 121 114 113 110 108 112 133 132 136 147 147 155 155 138 131 138 138 151 161 174 186 198 191 206 223 224 224 211 202 218 136 96 98 121 135 137 140 148 155 161 165 168
118 115 107 108 100 93 86 100 132 138 142 127 138 135 130 129 111 116 134 152 174 183 177 190 208 221 214 215 214 196 136 111 110 110 130 137 136 138 143 150 160 166 170
129 118 103 103 97 87 72 81 114 115 121 126 127 118 117 132 123 110 94 110 183 165 172 201 212 312 326 339 6 76 87 94 105 108 123 143 142 144 147 151 160 167 170
123 118 117 121 114 113 119 112 108 116 117 113 114 113 122 114 99 109 141 210 234 208 187 163 153 216 262 53 38 47 56 92 103 113 131 147 148 148 150 155 162 168 170
130 123 132 135 124 129 133 163 126 135 127 125 133 145 162 128 120 128 147 203 220 257 223 171 224 255 186 141 164 160 124 100 114 127 135 147 156 160 159 160 164 166 168
136 131 138 130 130 128 113 74 72 80 100 129 148 145 141 139 155 159 159 124 138 270 283 212 209 247 72 88 204 180 151 143 142 152 151 155 164 162 167 169 166 163 165
134 131 132 123 130 136 137 143 142 108 107 131 119 122 141 155 135 133 109 125 226 216 310 309 29 334 322 255 219 190 166 172 176 179 173 170 167 161 155 165 168 171 173
139 136 140 138 132 148 151 156 155 139 161 151 128 118 124 145 97 50 166 155 266 88 33 356 336 292 254 260 271 204 194 188 182 180 191 164 161 167 154 150 163 178 179
145 145 150 150 148 164 157 165 171 167 178 158 153 125 135 115 97 95 14 142 171 105 79 318 300 287 268 233 255 264 235 210 178 170 180 166 153 157 147 154 167 164 168
153 155 156 161 162 174 162 174 175 172 179 157 126 123 131 120 86 145 104 292 122 131 95 307 299 297 301 290 251 282 281 240 242 183 165 169 165 165 160 162 163 161 165
160 165 164 161 161 175 168 179 175 150 189 142 135 129 146 146 123 45 109 308 329 218 177 240 298 299 294 302 309 276 306 319 316 291 176 143 152 159 161 159 164 163 167
164 163 155 157 161 169 177 179 185 179 184 155 149 147 159 156 171 159 147 174 321 356 11 279 90 300 301 306 308 294 249 148 149 313 296 186 188 178 175 181 157 155 150
165 163 157 155 159 166 179 184 192 172 181 160 159 166 170 163 165 163 170 186 229 330 344 323 4 324 325 318 312 312 310 266 240 198 262 255 231 196 181 176 168 157 156
161 160 157 155 159 164 176 175 172 183 191 184 183 179 185 165 165 180 179 194 200 208 241 246 274 274 297 314 320 321 316 335 306 269 255 251 233 225 185 165 169 154 154